Location: Zagreb
(45.8000°N, 16.0000°E)
Time: 00:47:36
(UTC+01:00)

Vanguard 2 Rocket - All Passes

Search period start: 26 January 2020 00:00
Search period end: 05 February 2020 00:00
Orbit: 554 x 3326 km, 32.9° (Epoch: 25 January)

Date Brightness Start Highest point End Pass type
(mag) Time Alt. Az. Time Alt. Az. Time Alt. Az.
26 Jan - 05:28:42 10° SSW 05:32:05 20° SSE 05:36:30 10° ESE visible
26 Jan - 07:39:31 10° WSW 07:44:25 26° S 07:51:46 10° SE daylight
26 Jan - 09:52:18 10° WSW 09:57:48 19° SSW 10:05:20 10° SSE daylight
27 Jan - 04:30:53 10° S 04:33:05 14° SSE 04:35:35 10° SE visible
27 Jan - 06:40:55 10° SW 06:45:03 24° S 06:50:57 10° SE visible
27 Jan - 08:52:59 10° WSW 08:57:59 20° SSW 09:05:01 10° SSE daylight
28 Jan - 05:42:29 10° SW 05:45:53 20° S 05:50:19 10° SE visible
28 Jan - 07:53:59 10° SW 07:58:23 21° S 08:04:33 10° SE daylight
28 Jan - 10:09:01 10° SW 10:11:46 12° SSW 10:14:56 10° S daylight
29 Jan - 04:44:13 10° SSW 04:46:50 16° SSE 04:49:54 10° SE visible
29 Jan - 06:55:13 10° SW 06:58:59 20° S 07:04:07 10° SE daylight
29 Jan - 09:08:37 10° SW 09:11:58 13° SSW 09:16:06 10° S daylight
30 Jan - 03:46:19 10° S 03:47:49 12° SSE 03:49:25 10° SE visible
30 Jan - 05:56:34 10° SW 05:59:46 19° S 06:03:51 10° SE visible
30 Jan - 08:09:04 10° SW 08:12:22 15° SSW 08:16:31 10° SSE daylight
31 Jan - 04:58:01 10° SW 05:00:40 17° S 05:03:46 10° SE visible
31 Jan - 07:09:57 10° SW 07:12:57 15° S 07:16:43 10° SSE daylight
01 Feb - 03:59:30 10° SSW 04:01:37 14° S 04:03:53 10° SE visible
01 Feb - 06:11:02 10° SW 06:13:42 15° S 06:16:55 10° SSE visible
02 Feb - 03:01:06 10° SSW 03:02:35 12° S 03:04:03 10° SSE night (unlit)
02 Feb - 05:12:11 10° SW 05:14:34 15° S 05:17:16 10° SSE visible
03 Feb - 04:13:18 10° SW 04:15:30 14° S 04:17:48 10° SE visible
03 Feb - 06:26:38 10° SSW 06:27:39 11° SSW 06:28:43 10° S visible
04 Feb - 03:14:17 10° SSW 03:16:27 14° S 03:18:33 10° SE visible
04 Feb - 05:27:01 10° SSW 05:28:28 12° S 05:30:01 10° SSE visible
